Weather observations for the past three days for
El Reno, El Reno Regional Airport
Imperial (Metric)
Date Time (cdt) Wind (mph) Vis. (mi.) Weather Sky Cond. Temperature (ºF) Relative Humidity Wind Chill (°F) Heat Index (°F) Pressure Precipitation (in)
Air Dwpt 6 hour altimeter (in) sea level (mb) 1 hr 3 hr 6 hr
Max. Min.
21 18:15 N 13 10.00 Mostly Cloudy BKN035 BKN042 BKN048 83.5 67.5 59% 86 30.04 0.0
21 17:55 NE 10 10.00 Mostly Cloudy BKN035 BKN042 BKN048 80.8 67.8 65% 83 30.04 0.0
21 17:35 N 14 10.00 Partly Cloudy SCT035 SCT065 80.4 67.1 64% 83 30.04 0.0
21 17:15 NE 12 10.00 Partly Cloudy SCT030 BKN038 SCT065 82.2 67.8 62% 85 30.04 0.0
21 16:55 N 10 G 20 10.00 Partly Cloudy SCT030 82.9 68.4 62% 86 30.04 0.0
21 16:35 N 16 10.00 Partly Cloudy SCT030 83.1 68.2 61% 86 30.05 0.0
21 16:15 NE 16 10.00 Partly Cloudy SCT029 82.4 68.4 63% 86 30.05 0.0
21 15:55 N 14 10.00 Fair CLR 81.9 69.3 66% 85 30.06 0.0
21 15:35 N 15 10.00 Mostly Cloudy SCT021 BKN029 BKN035 78.1 69.3 74% 80 30.07 0.0
21 15:15 N 14 10.00 Mostly Cloudy SCT024 BKN029 BKN050 79.9 69.4 71% 83 30.08 0.0
21 14:55 N 16 10.00 Mostly Cloudy SCT020 SCT029 BKN050 80.8 70.3 71% 84 30.08 0.0
21 14:35 N 14 G 21 10.00 Overcast SCT020 BKN029 OVC050 78.8 70.5 76% 82 30.09 0.0
21 14:15 N 15 10.00 Mostly Cloudy SCT022 BKN029 BKN044 80.6 70.3 71% 84 30.09 0.0
21 13:55 N 14 10.00 Mostly Cloudy SCT022 BKN028 BKN047 78.8 70 74% 81 30.09 0.0
21 13:35 N 16 10.00 Overcast BKN020 BKN027 OVC036 77.4 69.4 77% 79 30.09 0.0
21 13:15 N 16 10.00 Overcast BKN018 BKN024 OVC029 76.8 70 80% 78 30.09 0.0
21 12:55 N 17 10.00 Overcast BKN018 BKN025 OVC032 77.2 70.2 79.3 69.1 79% 79 30.09 0.0
21 12:35 N 15 10.00 Mostly Cloudy SCT014 BKN021 BKN026 77 70.5 80% 79 30.1 0.0
21 12:15 N 15 10.00 Mostly Cloudy BKN014 BKN021 BKN034 77.9 71.6 81% 80 30.09 0.0
21 11:55 N 12 10.00 Overcast BKN014 OVC021 77.5 71.4 82% 79 30.1 0.0
21 11:35 N 12 10.00 Mostly Cloudy BKN012 BKN035 77.9 72.1 83% 80 30.1 0.0
21 11:15 N 15 10.00 Overcast BKN012 OVC035 77.2 72.1 85% 79 30.1 0.0
21 10:55 N 16 10.00 Overcast BKN014 BKN021 OVC032 77.9 72.5 84% 80 30.1 0.0
21 10:35 N 10 10.00 Mostly Cloudy SCT016 BKN023 77.5 71.8 83% 79 30.09 0.0
21 10:15 N 9 10.00 Mostly Cloudy BKN014 76.6 72 86% 78 30.09 0.0
21 09:55 N 3 10.00 Overcast OVC012 76.5 72.1 87% 77 30.09 0.0
21 09:35 Calm 10.00 Mostly Cloudy BKN010 74.8 71.4 89% 30.09 0.0
21 09:15 NE 5 10.00 Partly Cloudy SCT010 75.2 71.6 89% 75 30.08 0.0
21 08:55 NE 6 10.00 Partly Cloudy SCT010 74.7 71.6 90% 30.08 0.0
21 08:35 E 6 10.00 Fair CLR 73.4 71.8 95% 30.08 0.0
21 08:15 NW 3 7.00 Fog/Mist CLR 72.1 71.6 98% 30.07 0.0
21 07:55 NW 5 3.50 Fog/Mist CLR 70.9 70.7 99% 30.07 0.0
21 07:35 NW 5 3.00 Fog/Mist SCT004 SCT030 70.2 70.2 100% 30.07 0.0
21 07:15 NW 7 4.00 Fog/Mist SCT004 SCT032 70 70 100% 30.07 0.0
21 06:55 Calm 5.00 Fog/Mist SCT026 69.1 68.7 75.2 69.1 99% 30.06 0.0
21 06:35 NW 3 5.00 Fog/Mist BKN026 69.4 69.1 99% 30.06 0.0
21 06:15 W 5 10.00 Fair CLR 69.8 69.3 98% 30.06 0.0
21 05:55 SE 5 10.00 Partly Cloudy SCT026 70.3 69.6 98% 30.05 0.0
21 05:35 SW 3 10.00 Fair CLR 69.6 69.3 99% 30.04 0.0
21 05:15 W 6 7.00 Fair CLR 69.8 69.8 100% 30.04 0.0
21 04:55 NW 10 7.00 Mostly Cloudy BKN065 70.2 69.4 98% 30.04 0.0
21 04:35 Calm 10.00 Mostly Cloudy BKN065 70.7 69.8 97% 30.04 0.0
21 04:15 SW 5 10.00 Thunderstorm in Vicinity CLR 70 69.1 97% 30.03 0.0
21 03:55 SW 5 10.00 Fair CLR 70.3 69.3 96% 30.03 0.0
21 03:35 S 3 3.00 Thunderstorm Fog/Mist in Vicinity CLR 70.7 69.3 95% 30.03 0.0
21 03:15 S 5 10.00 Fair CLR 71.4 69.6 94% 30.02 0.0
21 02:55 S 9 10.00 Fair CLR 71.8 69.4 92% 30.02 0.0
21 02:35 SE 9 10.00 Thunderstorm in Vicinity SCT120 72.1 69.3 91% 30.03 0.0
21 02:15 S 8 10.00 Fair CLR 72.5 68.7 88% 30.04 0.0
21 01:55 SE 13 10.00 Partly Cloudy SCT065 SCT070 SCT120 74.1 66.9 78% 30.04 0.0
20 21:40 N 6 10.00 Thunderstorm in Vicinity CLR 77.7 74.5 90% 80 30.04 0.0
20 18:55 SE 7 10.00 Partly Cloudy SCT120 85.3 69.4 89.8 81.5 59% 89 30 0.0
20 18:35 S 7 10.00 Fair CLR 87.8 69.8 55% 93 30 0.0
20 18:15 S 7 10.00 Fair CLR 88.7 71.4 57% 95 30 0.0
20 17:55 SW 5 10.00 Fair CLR 88.2 69.4 54% 93 30.01 0.0
20 17:35 SW 7 10.00 Fair CLR 88.2 69.3 54% 93 30 0.0
20 17:15 SW 9 10.00 Fair CLR 88 70.3 56% 93 30.01 0.0
20 16:55 SW 8 10.00 Fair CLR 88 71.2 58% 94 30.02 0.0
20 16:35 S 9 10.00 Fair CLR 88.7 72.3 58% 96 30.03 0.0
20 16:15 SW 9 10.00 Fair CLR 86.5 71.1 60% 92 30.03 0.0
20 15:55 SW 12 10.00 Fair CLR 87.6 70.5 57% 93 30.03 0.0
20 15:35 S 15 10.00 Fair CLR 86.9 70.3 58% 92 30.04 0.0
20 15:15 S 16 10.00 Fair CLR 86.4 70.9 60% 92 30.04 0.0
20 14:55 S 13 G 18 10.00 Fair CLR 86 70.9 61% 91 30.05 0.0
20 14:35 S 14 10.00 Fair CLR 85.8 70.2 60% 91 30.06 0.0
20 14:15 S 14 G 22 10.00 Fair CLR 85.1 69.1 59% 89 30.05 0.0
19 19:55 E 8 10.00 Fair CLR 84.4 58.5 41% 84 30.06 0.0
19 19:35 E 8 10.00 Fair CLR 85.5 57.7 39% 85 30.05 0.0
19 19:15 E 8 10.00 Fair CLR 86.7 58.3 38% 86 30.04 0.0
19 18:55 E 9 10.00 Fair CLR 87.4 59 90.9 85.3 38% 87 30.04 0.0
19 18:35 E 8 0.00 Fair CLR 88.3 58.8 37% 88 30.05 0.0
19 18:15 E 6 10.00 Fair CLR 88.5 59.2 37% 88 30.05 0.0
19 17:55 E 6 10.00 Fair CLR 89.2 59.4 37% 89 30.05 0.0
19 17:35 E 7 10.00 Fair CLR 89.2 58.5 35% 88 30.06 0.0
19 17:15 E 6 10.00 Fair CLR 90.1 59.4 36% 90 30.06 0.0
19 16:55 Calm 10.00 Fair CLR 89.2 58.1 35% 88 30.07 0.0
19 16:35 NE 3 10.00 Fair CLR 89.4 58.5 35% 88 30.07 0.0
19 16:15 NE 5 10.00 Fair CLR 90.5 60.1 36% 90 30.08 0.0
19 15:55 NE 5 10.00 Fair CLR 89.2 58.5 35% 88 30.09 0.0
19 15:35 N 3 10.00 Fair CLR 88.7 58.1 36% 88 30.09 0.0
19 15:15 E 9 10.00 Fair CLR 88.3 59.2 37% 88 30.11 0.0
19 14:55 E 7 G 17 10.00 Fair CLR 88.2 57.9 36% 87 30.11 0.0
19 14:35 NE 7 10.00 Fair CLR 87.8 58.5 37% 87 30.12 0.0
19 14:15 SE 5 10.00 Fair CLR 88 58.1 36% 87 30.13 0.0
19 13:55 E 10 10.00 Fair CLR 87.8 58.6 37% 87 30.13 0.0
19 13:35 E 5 10.00 Fair CLR 87.6 57.2 36% 86 30.14 0.0
19 13:15 E 7 10.00 Fair CLR 87.1 57.6 37% 86 30.15 0.0
19 12:55 Calm 10.00 Fair CLR 85.5 57 86.2 64.2 38% 84 30.15 0.0
19 12:15 Calm 10.00 Fair CLR 84.2 57.2 40% 83 30.16 0.0
19 11:55 SE 6 10.00 Fair CLR 84.6 58.8 42% 84 30.16 0.0
19 11:15 Calm 10.00 Fair CLR 81.7 58.5 45% 82 30.17 0.0
19 10:55 S 6 10.00 Fair CLR 81.5 61.2 50% 82 30.17 0.0
19 10:35 SE 6 10.00 Fair CLR 80.2 61.5 53% 81 30.17 0.0
19 10:15 SE 9 10.00 Fair CLR 78.8 61.9 56% 80 30.18 0.0
19 09:55 SE 5 10.00 Fair CLR 77.4 61.5 58% 79 30.18 0.0
19 09:35 SE 7 10.00 Fair CLR 76.3 61.7 61% 78 30.18 0.0
19 09:15 SE 8 10.00 Fair CLR 74.7 60.8 62% 30.19 0.0
19 08:55 S 9 10.00 Fair CLR 73.6 61.2 65% 30.19 0.0
19 08:35 SE 7 10.00 Fair CLR 72 60.4 67% 30.19 0.0
19 08:15 SE 5 10.00 Fair CLR 70.7 60.3 70% 30.19 0.0
19 07:55 SE 5 10.00 Fair CLR 69.3 61 75% 30.18 0.0
19 07:35 E 5 10.00 Fair CLR 67.3 61 80% 30.17 0.0
19 07:15 E 7 4.00 Fair with Haze CLR 64.9 60.4 85% 30.17 0.0
19 06:55 SE 6 10.00 Fair CLR 64 59.7 69.1 63.1 86% 30.16 0.0
19 06:35 SE 5 10.00 Fair CLR 63.5 59.9 88% 30.16 0.0
19 06:15 SE 7 10.00 Fair CLR 63.7 59.2 85% 30.15 0.0
19 05:55 E 7 10.00 Fair CLR 64.8 59.5 83% 30.16 0.0
19 05:35 E 5 10.00 Fair CLR 64 59.5 85% 30.15 0.0
19 05:15 NE 7 10.00 Fair CLR 64.4 59.4 84% 30.15 0.0
19 04:55 NE 6 10.00 Fair CLR 65.3 59.5 82% 30.15 0.0
19 04:35 NE 5 10.00 Fair CLR 65.5 59.7 82% 30.15 0.0
19 04:15 NE 6 10.00 Fair CLR 64.9 60.1 84% 30.15 0.0
19 03:55 NE 5 10.00 Fair CLR 65.1 60.1 84% 30.15 0.0
19 03:35 NE 7 10.00 Fair CLR 65.5 59.9 82% 30.15 0.0
19 03:15 NE 8 10.00 Fair CLR 66.4 60.1 80% 30.15 0.0
19 02:55 E 7 10.00 Fair CLR 68 59.4 74% 30.15 0.0
19 02:35 E 3 10.00 Fair CLR 67.5 60.1 77% 30.16 0.0
19 02:15 E 5 10.00 Fair CLR 68.2 59.9 75% 30.16 0.0
19 01:55 E 7 10.00 Fair CLR 67.6 61 79% 30.16 0.0
19 01:35 E 6 10.00 Fair CLR 68.2 61 78% 30.16 0.0
19 01:15 E 6 10.00 Fair CLR 68.7 61 76% 30.17 0.0
19 00:55 E 6 10.00 Fair CLR 69.3 60.8 85.8 68.9 75% 30.17 0.0
19 00:35 E 5 10.00 Fair CLR 68.9 61.3 77% 30.18 0.0
19 00:15 E 7 10.00 Fair CLR 70.5 60.8 71% 30.17 0.0
18 23:55 E 8 10.00 Fair CLR 71.4 60.6 69% 30.17 0.0
18 23:35 E 8 10.00 Fair CLR 71.1 61.7 72% 30.17 0.0
18 23:15 E 9 10.00 Fair CLR 71.6 61.7 71% 30.16 0.0
18 22:55 E 8 10.00 Fair CLR 73.6 61.3 66% 30.15 0.0
18 21:55 E 6 10.00 Fair CLR 74.3 63 68% 30.13 0.0
18 21:35 E 6 10.00 Fair CLR 75 62.6 65% 77 30.13 0.0
18 21:15 E 5 10.00 Fair CLR 75.7 62.4 63% 78 30.12 0.0
18 20:55 E 7 10.00 Fair CLR 77.4 62.2 60% 79 30.12 0.0
18 20:35 E 7 10.00 Fair CLR 79 62.4 57% 80 30.11 0.0
18 20:15 E 3 10.00 Fair CLR 81.5 61.5 51% 82 30.11 0.0
18 19:35 E 7 10.00 Fair CLR 84.7 60.1 43% 85 30.1 0.0
18 19:15 E 12 10.00 Fair CLR 85.6 60.1 42% 85 30.09 0.0
18 18:55 NE 8 10.00 Fair CLR 85.8 59.7 88.5 83.8 41% 86 30.1 0.0
18 18:35 E 10 10.00 Fair CLR 86.4 59.9 41% 86 30.11 0.0
Date Time (cdt) Wind (mph) Vis. (mi.) Weather Sky Cond. Air Dwpt Max. Min. Relative Humidity Wind Chill (°F) Heat Index (°F) altimeter (in) sea level (mb) 1 hr 3 hr 6 hr
6 hour
Temperature (ºF) Pressure Precipitation (in)